EHI
0 2 4 3 1 0 0 1 2 3 2 2 5 10 8 5 5 5 4 2 0 0 1 0 0 0 1 1 1 2 4 5 4 2 0 0 0 0 0 0 0 1 1
0 1 4 4 2 1 1 1 3 3 2 3 7 9 7 5 4 5 4 2 0 0 1 1 0 0 0 0 1 2 3 4 4 2 0 0 0 0 0 0 0 0 1
0 1 3 4 4 4 3 3 3 3 3 4 7 8 6 4 4 4 2 1 0 0 1 1 1 1 1 0 1 2 2 2 2 2 1 0 0 1 1 1 0 0 1
0 0 1 3 5 6 5 3 3 3 4 4 5 5 4 3 2 1 0 0 0 0 0 0 1 2 1 0 0 1 1 0 1 1 1 0 0 1 1 1 0 0 1
0 0 1 3 5 6 5 4 4 4 4 4 4 4 3 2 1 0 0 0 1 0 0 0 1 2 1 0 0 0 1 1 1 1 0 0 0 0 0 0 0 0 0
0 0 2 5 7 6 5 4 5 5 5 4 5 6 5 2 1 0 0 0 0 0 0 0 1 2 1 1 0 1 2 3 2 1 1 0 0 0 0 0 1 0 0
0 0 2 6 7 6 4 4 5 6 5 4 6 7 7 5 2 1 0 0 0 0 0 0 1 1 2 2 2 2 3 4 4 3 2 1 1 1 1 2 2 1 1
0 0 1 4 5 4 3 3 5 5 5 4 6 7 7 6 4 2 1 1 0 0 0 0 0 0 2 4 5 5 4 4 3 3 2 2 2 3 3 4 4 4 3
0 0 0 1 2 2 2 4 4 4 4 4 5 7 8 7 6 4 3 2 1 1 1 0 1 1 3 5 6 5 4 3 2 1 1 2 3 3 3 4 4 4 2
0 0 0 0 0 1 1 3 3 3 2 3 3 5 7 6 5 4 3 3 3 2 2 2 2 2 3 5 5 4 2 1 1 0 1 2 2 2 2 2 2 1 1
0 0 0 0 0 0 0 1 1 1 1 1 1 2 3 3 2 1 2 3 3 3 3 3 3 3 2 3 3 3 1 0 0 0 1 1 1 1 2 1 0 0 0
0 0 0 0 0 0 0 0 0 0 0 0 0 0 0 0 0 0 1 1 2 2 2 2 2 2 2 1 1 1 1 0 0 0 0 0 1 1 2 1 0 0 0
0 0 0 0 0 0 0 0 0 0 0 0 0 0 0 0 0 0 0 0 1 1 1 1 1 1 1 0 0 0 0 0 0 0 0 0 0 1 1 0 0 0 0
0 0 0 0 0 0 0 0 0 0 0 0 0 0 0 0 0 0 0 0 0 0 0 0 0 0 0 0 0 0 0 0 0 0 0 0 0 0 0 0 0 0 0
0 0 0 0 0 0 0 0 0 0 0 0 0 0 0 0 0 0 0 0 0 0 0 0 0 0 0 0 0 0 0 0 0 0 0 0 0 1 1 1 0 0 0
0 0 0 0 0 0 0 0 0 0 0 0 0 0 0 0 0 0 0 0 0 0 0 0 0 0 0 0 0 0 0 0 0 0 0 0 0 1 1 1 0 0 0
1 0 0 1 1 1 0 0 0 0 0 0 0 0 0 1 1 0 0 0 0 0 0 0 0 0 0 0 0 0 0 0 0 0 0 0 0 0 0 0 0 0 0
1 1 1 2 3 2 1 1 0 0 0 0 1 1 1 2 2 0 0 0 0 0 0 0 0 0 0 0 0 0 0 0 0 0 0 0 0 0 0 0 0 0 0
1 1 3 4 4 3 3 2 2 2 1 1 2 2 2 3 1 0 0 0 0 0 0 0 0 1 1 0 0 0 0 0 0 0 1 0 0 0 0 0 0 0 1
2 3 5 5 4 3 4 4 5 5 4 3 3 3 2 1 0 0 0 0 0 0 0 0 0 1 1 1 0 0 0 0 0 0 1 1 1 1 1 0 0 0 1
6 6 6 6 4 4 5 6 6 6 6 4 3 3 1 1 0 0 0 0 0 0 0 0 0 1 1 2 1 1 0 0 0 1 1 2 2 2 2 1 0 0 1
10 9 9 7 5 5 6 6 6 6 6 4 3 2 2 1 0 0 0 0 0 0 0 0 0 1 1 2 3 2 1 0 0 1 2 2 2 2 2 1 1 1 1
10 10 10 7 6 6 6 6 6 5 4 3 2 1 1 1 0 0 0 0 0 0 0 0 0 1 2 3 3 3 2 1 1 1 1 1 1 1 1 1 1 1 2
9 9 7 5 5 5 5 5 5 4 3 2 1 0 0 0 0 0 0 0 1 1 1 0 0 1 1 2 2 2 2 2 2 2 1 1 0 0 0 1 1 1 1
11 10 8 5 5 6 6 5 4 4 3 2 1 0 0 0 0 0 0 0 1 2 2 1 1 0 0 1 1 1 1 2 2 1 1 0 0 0 0 1 2 1 1
12 12 10 7 5 6 7 6 5 4 3 2 1 0 0 0 0 0 0 0 1 3 3 2 2 1 0 0 0 0 0 1 1 1 0 0 0 0 0 1 2 2 2
Wind_Speed
1 2 2 2 3 4 5 6 7 8 9 9 10 9 9 9 9 9 9 9 9 9 9 9 9 9 10 10 9 10 10 11 11 11 11 10 10 10 10 10 9 7 10
1 1 2 3 4 5 6 7 7 8 9 9 9 9 9 8 8 8 8 7 8 9 9 9 9 9 9 9 9 9 9 11 11 11 11 10 10 10 9 9 9 6 10
2 1 2 3 5 6 6 7 7 7 8 8 8 8 8 7 7 7 7 6 7 8 9 9 9 9 8 9 9 9 9 10 10 10 9 5 6 9 9 9 9 10 10
3 1 1 4 5 6 7 6 6 6 7 8 8 8 8 7 6 6 5 5 6 7 8 8 8 8 8 8 9 9 9 10 10 9 5 4 5 9 10 10 10 10 10
2 1 1 5 6 6 6 6 5 4 8 8 8 7 7 6 6 5 5 4 5 6 7 7 7 7 7 7 8 9 9 9 10 7 4 4 4 7 10 10 10 10 10
2 1 1 4 5 6 6 5 5 7 8 8 7 7 7 6 5 4 4 3 4 5 6 6 6 5 5 6 7 8 8 9 8 5 4 4 4 7 10 10 10 10 9
2 1 1 3 4 5 5 5 5 6 7 7 7 7 6 5 5 4 4 3 3 4 4 4 4 4 4 5 6 6 7 8 5 5 5 5 5 8 9 10 9 9 9
3 1 1 3 3 3 4 4 5 5 6 6 6 6 5 4 4 3 2 2 2 3 3 3 3 3 3 3 5 6 7 7 6 5 5 5 7 8 9 9 9 9 10
2 2 1 1 1 2 3 3 4 4 4 5 5 5 4 3 3 2 2 2 2 2 3 3 3 3 3 3 5 6 6 7 5 3 5 4 7 9 10 9 9 9 10
2 1 1 1 1 1 1 2 3 3 3 3 3 3 3 2 1 1 1 1 1 1 2 2 2 2 2 2 3 4 5 5 4 4 3 4 8 9 10 10 10 10 10
1 1 1 1 1 1 1 1 2 2 2 2 2 2 1 2 2 1 1 1 0 1 1 1 2 2 1 1 2 3 3 2 4 3 3 5 8 9 10 10 10 10 10
1 0 0 0 1 1 1 2 2 2 2 2 1 2 2 2 2 2 2 2 1 1 1 1 1 1 1 1 1 1 1 2 3 2 3 6 7 8 9 9 9 9 9
2 1 0 1 1 1 1 1 1 1 1 1 2 2 1 2 2 2 2 2 3 2 2 3 3 2 1 1 1 1 2 2 1 2 3 7 7 8 8 8 9 9 9
1 1 0 1 1 1 1 1 1 1 1 1 1 2 1 1 1 2 1 2 2 2 2 2 1 1 1 1 1 1 1 1 1 1 3 7 7 8 8 8 9 9 9
2 1 1 2 2 1 1 1 1 1 1 1 1 1 1 1 1 1 1 1 2 1 1 1 1 1 1 0 0 1 1 2 2 2 2 5 6 7 7 8 9 9 9
3 2 1 2 2 2 1 1 1 1 1 1 1 1 1 1 1 1 1 1 1 1 1 1 0 1 0 0 0 0 1 1 1 2 2 3 5 6 6 6 7 8 9
3 2 2 2 2 2 1 0 0 1 1 1 1 1 1 1 1 1 1 1 1 1 1 1 1 1 0 0 1 1 0 0 1 1 2 1 2 4 6 6 6 8 9
3 3 2 3 3 2 1 0 1 1 1 0 1 1 1 1 1 1 1 1 1 1 1 1 1 1 1 1 1 1 1 0 0 1 1 1 1 1 3 5 6 7 8
3 3 3 2 3 2 2 1 1 1 1 1 1 1 1 1 1 1 1 1 1 1 1 1 1 0 0 1 0 1 1 1 0 0 1 1 1 1 1 3 4 5 7
3 3 3 3 2 2 2 1 1 2 1 1 1 1 1 1 1 1 0 1 1 1 1 1 1 1 0 0 0 1 1 1 0 0 1 0 1 1 1 2 2 2 4
3 3 3 3 2 2 1 1 1 1 1 1 1 2 2 1 1 1 1 1 1 1 1 1 1 1 1 1 1 1 1 1 0 0 0 0 1 1 1 1 1 1 2
3 3 2 2 2 2 1 1 1 1 0 0 1 2 2 2 1 1 1 1 1 1 1 1 1 1 1 1 1 1 2 2 1 1 0 0 1 0 1 2 2 2 2
2 3 2 2 2 1 1 2 2 2 2 2 2 2 2 2 1 1 1 1 1 1 1 1 1 1 0 1 1 1 1 1 2 1 1 1 1 0 1 1 2 2 2
3 2 2 2 2 1 2 2 2 2 1 1 1 1 2 2 2 2 1 2 2 1 1 1 1 1 1 1 1 0 0 1 0 2 2 1 1 1 1 1 1 2 2
2 2 2 2 1 1 2 2 2 1 1 0 1 1 2 2 2 1 1 1 1 1 1 1 1 2 1 1 0 0 0 1 1 1 2 2 2 1 1 1 1 1 1
2 2 2 2 1 1 2 2 2 2 1 0 1 1 1 1 1 1 1 1 1 1 1 0 1 1 1 1 1 1 1 1 0 1 1 2 2 2 2 1 1 1 1
Wind_Direction
261 267 212 150 129 120 125 130 128 129 132 138 137 138 142 144 146 147 150 159 165 164 163 163 162 160 161 161 161 161 161 161 160 160 158 158 157 155 156 157 153 148 149
162 198 175 137 124 122 123 124 128 131 135 136 136 137 139 143 145 146 151 160 169 171 169 165 164 162 164 164 164 166 166 166 165 166 165 164 165 162 163 165 162 157 156
120 144 167 136 122 120 115 116 122 130 134 136 137 138 136 139 142 145 148 156 166 170 171 167 166 165 167 169 169 170 169 170 169 169 166 161 169 172 171 173 168 162 161
130 124 157 135 123 119 116 117 119 131 137 137 137 137 136 136 135 139 141 148 157 162 166 168 167 169 171 173 174 173 173 174 172 170 163 164 174 178 178 179 174 170 169
122 118 160 139 131 127 124 120 115 129 144 139 140 139 138 134 128 128 130 136 146 154 159 159 162 166 169 175 179 180 178 176 177 172 157 168 176 185 182 182 180 176 173
122 118 157 144 134 126 123 119 113 102 124 132 135 138 140 135 129 126 126 119 133 145 150 155 159 164 172 178 185 185 181 182 179 164 162 168 178 190 189 186 183 178 173
119 112 137 138 129 125 125 125 118 112 116 120 126 133 137 134 130 127 124 118 122 133 138 145 152 164 181 188 189 184 183 183 165 161 166 172 187 198 198 192 184 182 177
135 127 108 149 134 121 114 113 117 119 120 123 126 129 136 139 141 141 138 139 138 141 139 146 154 162 172 177 178 175 177 179 167 163 166 177 191 200 199 194 186 185 182
107 110 82 53 92 114 109 112 118 123 129 132 135 135 138 144 154 152 148 172 167 156 153 159 164 167 168 166 170 176 175 173 152 154 175 179 196 203 201 194 191 191 188
84 80 56 33 42 37 47 93 113 119 118 121 126 130 135 143 137 125 114 169 176 162 156 164 170 171 182 183 173 174 171 166 152 161 169 184 198 204 204 200 196 195 193
102 72 56 54 47 34 32 58 67 81 85 87 92 100 69 30 20 10 22 0 36 104 111 147 165 156 149 154 170 164 162 148 152 162 168 196 202 207 207 201 197 197 196
189 195 77 104 96 69 67 52 33 34 34 39 43 36 42 38 17 14 359 0 34 58 67 74 83 84 78 71 104 143 136 151 155 169 189 203 206 211 209 202 197 198 199
187 173 148 157 113 102 67 58 44 33 28 30 34 40 41 36 20 15 9 1 9 22 32 36 41 43 60 83 93 126 153 158 173 193 205 207 208 211 206 201 198 201 203
135 147 137 135 109 104 90 57 53 39 26 28 24 39 59 47 25 15 19 11 20 25 39 41 48 47 54 75 132 170 173 174 186 200 213 211 210 212 210 209 206 207 208
151 161 145 116 117 115 98 57 70 53 32 23 31 29 72 74 32 30 39 32 24 28 46 47 57 63 37 344 189 181 190 195 204 205 224 219 215 215 215 216 212 210 210
171 174 149 130 132 115 102 89 40 37 33 41 33 13 58 85 77 64 46 33 18 22 38 81 92 99 42 5 335 269 220 208 214 220 214 224 225 219 221 223 220 215 213
173 157 149 146 113 104 98 101 84 45 45 31 8 30 66 86 101 94 71 29 356 8 28 58 64 74 80 32 353 325 296 211 201 214 210 202 227 231 227 230 228 224 220
160 150 156 146 126 125 125 155 88 72 72 34 28 36 65 74 83 92 77 5 346 21 46 64 57 57 29 30 17 352 6 43 147 182 176 186 213 232 240 246 242 234 227
168 154 148 141 143 146 125 95 74 71 66 52 48 44 28 62 89 109 80 350 4 48 51 54 56 69 28 357 4 27 13 21 68 166 167 202 219 229 241 264 263 252 232
159 151 148 145 132 117 89 62 53 48 41 45 41 29 12 23 53 92 88 17 43 53 40 40 50 42 60 319 18 48 25 9 25 96 218 219 232 226 231 256 268 271 258
148 151 155 144 130 113 104 107 84 18 16 25 28 27 21 23 29 72 46 44 58 76 37 50 72 48 30 28 47 16 2 17 263 267 243 225 266 252 240 248 257 262 272
165 163 153 154 150 146 155 157 138 110 51 40 6 20 32 41 34 58 61 58 60 72 46 38 64 64 33 51 85 64 358 350 342 347 319 341 323 283 251 243 241 251 263
165 173 174 170 153 143 132 103 81 57 31 18 11 8 9 29 48 45 59 81 79 93 75 32 53 89 74 26 61 118 130 270 318 330 351 8 338 288 269 261 251 258 255
180 165 162 160 147 135 130 127 126 130 168 268 294 334 359 17 33 46 57 67 70 79 80 48 66 67 95 49 5 35 146 171 181 320 329 329 289 257 275 276 273 265 259
167 160 169 150 144 146 147 156 150 155 194 316 10 13 2 8 31 54 75 77 75 74 66 55 65 73 90 109 100 84 74 50 82 196 297 321 317 285 280 267 268 266 261
145 145 149 148 170 172 166 165 168 178 176 85 351 341 345 348 358 12 86 82 85 90 77 55 78 88 86 90 86 82 100 112 202 194 247 290 305 306 295 271 274 270 263